Location: Bush Observatory
(40.2653°N, 94.3194°W)
Time: 17:41:11
(UTC-05:00)

Daily predictions for brighter satellites

Satellite Brightness Start Highest point End
(mag) Time Altitude Azimuth Time Altitude Azimuth Time Altitude Azimuth
Cosmos 2360 Rocket 3.3 20:28:48 10° SSE 20:32:57 21° E 20:37:08 10° NE
Cosmos 1980 Rocket 3.4 20:28:03 10° SW 20:33:32 51° WNW 20:39:07 10° NNE
OAO 3 Rocket 3.8 20:30:37 10° WSW 20:35:15 46° S 20:39:57 10° ESE
Cosmos 1503 Rocket 4.1 20:32:51 10° NNW 20:38:05 60° ENE 20:43:12 10° SSE
SJ-6B 4.2 20:35:38 10° S 20:39:24 43° W 20:43:16 10° NNW
Spot 2 Rocket 3.5 20:34:50 10° SSE 20:39:55 76° ENE 20:45:00 10° N
Cosmos 2142 Rocket 4.5 20:36:10 10° S 20:42:13 66° E 20:48:20 10° NNE
GENESIS II 4.2 20:39:16 10° SSW 20:43:16 68° ESE 20:47:20 10° NE
Cosmos 1354 Rocket 4.1 20:38:43 10° NNW 20:44:00 69° ENE 20:49:12 10° SSE
ATLAS 5 CENTAUR R/B 3.2 20:42:13 10° NNW 20:47:45 38° NE 20:53:35 10° ESE
Cosmos 1408 2.7 20:45:47 10° N 20:49:25 54° E 20:52:59 10° SSE
SL-16 R/B 2.2 20:48:31 10° SSW 20:54:11 85° ESE 20:59:54 10° NNE
Cosmos 2026 Rocket 4.0 20:48:14 10° N 20:54:27 68° E 21:00:31 10° SSE
CZ-2D R/B 3.4 20:52:11 10° S 20:56:04 77° WSW 20:59:59 10° NNW
Meteor 1-29 3.7 20:53:21 10° NNE 20:56:32 32° E 20:59:39 10° SSE
Cosmos 1315 Rocket 4.1 20:55:19 10° NNW 20:59:10 42° W 21:02:57 10° SSW
Envisat 3.3 20:55:10 10° SSE 21:00:04 51° ENE 21:04:59 10° N
Cosmos 1733 Rocket 3.3 20:55:56 10° N 21:00:18 53° E 21:04:39 10° SSE
USA 234 3.8 20:56:41 10° ESE 21:02:52 50° NNE 21:09:07 10° NW
Meteor 2-20 Rocket 4.5 20:58:38 10° N 21:04:48 87° E 21:10:56 10° S
Cosmos 1933 3.5 21:03:49 10° S 21:07:44 52° E 21:11:39 10° NNE
Cosmos 1862 Rocket 3.6 21:04:30 10° S 21:08:53 61° E 21:13:19 10° NNE
Helios 1A 3.0 21:06:28 10° SSE 21:10:41 77° ENE 21:14:57 10° N
SEDSat Delta rocket 4.4 21:08:12 10° WSW 21:12:44 32° S 21:16:15 17° SE
USA 186 2.4 21:12:22 10° S 21:15:03 47° W 21:17:55 10° NNW
Cosmos 1844 Rocket 4.3 21:12:21 10° N 21:16:12 19° NE 21:19:16 13° E
SJ-11-01 4.3 21:13:35 11° SSE 21:17:58 65° ENE 21:22:36 10° N
CZ-4B DEB 2.5 21:16:49 17° SSE 21:18:59 70° ENE 21:22:01 10° N
YAOGAN 6 3.3 21:21:30 23° SE 21:23:11 36° ENE 21:26:31 10° N
Cosmos 1862 3.4 21:21:01 10° N 21:25:03 81° W 21:29:05 10° S
ERS-1 Rocket 3.5 21:22:03 19° SE 21:25:13 41° ENE 21:29:55 10° N
Milstar 3 4.0 21:20:54 10° WSW 21:27:48 29° SSW 21:31:42 17° SSE
Cosmos 1703 Rocket 4.1 21:27:00 20° SSE 21:29:28 37° E 21:33:33 10° NNE
SeaSat 1 4.1 21:27:56 15° E 21:30:20 20° NE 21:33:53 10° N
Cosmos 2219 Rocket 3.6 21:37:34 18° E 21:37:34 18° E 21:40:27 10° ENE
Cosmos 1655 Rocket 4.3 21:30:55 10° NNW 21:37:17 70° W 21:43:33 10° S
Meteor 2-10 Rocket 3.7 21:32:39 10° S 21:38:26 74° E 21:44:13 10° NNE
Meteor 1-26 Rocket 4.2 21:34:56 10° S 21:40:32 65° E 21:46:17 10° NNE
NOSS 3-1 (C) 4.3 21:42:31 24° ESE 21:42:31 24° ESE 21:47:09 10° ENE
Cosmos 2266 Rocket 4.1 21:37:03 10° N 21:43:15 57° E 21:47:08 24° SSE
Cosmos 1939 Rocket 3.2 21:40:34 16° S 21:43:39 66° WSW 21:47:39 10° NNW
USA 229 DEB 3.6 21:40:39 10° SSW 21:47:23 70° ESE 21:54:17 10° NE
USA 229 3.6 21:40:45 10° SSW 21:47:30 69° ESE 21:54:23 10° NE
Cosmos 2221 Rocket 3.8 21:48:14 35° SE 21:49:34 46° E 21:53:48 10° NNE
SPOT 5 3.5 21:50:39 31° ESE 21:51:57 38° ENE 21:56:14 10° N
Cosmos 1777 Rocket 4.4 21:51:21 10° N 21:56:25 46° ENE 21:58:03 35° ESE
Helios 1B rocket 4.2 21:53:35 10° N 21:57:16 33° WNW 22:00:57 10° SW
Lacrosse 4 Rocket 3.9 21:55:06 10° WNW 21:58:09 19° WSW 22:01:13 10° SSW
Cosmos 2263 Rocket 3.0 21:53:14 10° NW 21:58:32 46° WSW 22:02:37 16° S
Atlas Centaur 2 3.3 21:56:20 10° WSW 22:02:42 39° S 22:05:13 32° SE
Cosmos 2237 4.1 22:00:13 10° SSW 22:05:56 78° ESE 22:11:41 10° NNE
SL-08 RB Rocket 4.2 22:07:29 40° E 22:08:00 41° ENE 22:12:17 10° N
H-2A R/B 3.7 22:14:15 20° ENE 22:14:15 20° ENE 22:17:08 10° NNE
MOS 1-B Rocket 3.9 22:12:55 40° SE 22:14:54 62° ENE 22:20:26 10° N
COSMOS 2428 2.6 22:10:54 18° S 22:15:12 71° ESE 22:20:53 10° NNE
Cosmos 2360 Rocket 3.0 22:11:01 10° SW 22:16:31 52° WNW 22:22:03 10° NNE
OAO 3 Rocket 4.2 22:14:03 10° WSW 22:18:18 31° SSW 22:18:18 31° SSW
Cosmos 1908 Rocket 4.5 22:16:14 10° NNW 22:20:21 44° W 22:22:17 27° SSW
CZ-4C R/B 3.9 22:14:46 10° NNW 22:21:03 33° NE 22:24:27 24° E
MetOp-B 4.1 22:20:21 43° S 22:22:13 85° WSW 22:27:36 10° NNW
Meteor 1-14 Rocket 4.5 22:18:40 10° NNW 22:24:19 68° W 22:27:02 32° S
Cosmos 968 Rocket 4.3 22:21:19 10° NNW 22:26:17 46° WSW 22:28:30 29° SSW
NOAA 11 4.3 22:25:36 40° S 22:27:38 74° WSW 22:33:09 10° NNW
Nadezhda 2 Rocket 4.5 22:22:13 10° N 22:28:42 79° E 22:30:49 45° SSE
Meteor 1-25 Rocket 4.1 22:23:16 10° N 22:28:52 85° W 22:30:30 48° S
Cosmos 1844 4.0 22:23:29 10° NNW 22:29:00 51° ENE 22:29:52 47° E
Cosmos 1606 3.9 22:31:23 33° NNE 22:31:23 33° NNE 22:33:38 10° NNE
ATLAS 5 CENTAUR R/B 3.2 22:26:49 10° NW 22:32:35 44° WSW 22:35:10 30° SSW
Cosmos 1782 Rocket 4.1 22:30:36 10° NNW 22:34:52 54° W 22:35:39 47° SW
USA 245 4.1 22:36:56 52° S 22:38:19 78° WSW 22:43:17 10° NNW
ARGOS 3.1 22:37:52 55° S 22:39:02 78° WSW 22:44:27 10° NNW
Terra 2.8 22:40:44 35° NE 22:40:44 35° NE 22:44:33 10° N
H-2A R/B 1.9 22:40:23 67° E 22:40:31 67° ENE 22:45:25 10° N
Meteor 1-20 Rocket 4.3 22:35:17 10° NNW 22:40:52 76° W 22:42:16 52° SSW
USA 234 3.7 22:44:02 41° S 22:45:50 51° SW 22:52:11 10° NW
Okean 1-7 4.1 22:45:28 33° WSW 22:46:47 43° WNW 22:51:00 10° N
Okean 2 Rocket 3.5 22:42:44 10° NNW 22:47:11 57° W 22:47:26 56° WSW
S3M 4.1 22:47:55 53° E 22:47:58 53° E 22:53:59 10° NNE
DMSP B5D2-2 4.4 22:45:55 10° NNE 22:50:21 52° ENE 22:50:21 52° ENE
Cosmos 2237 Rocket 3.0 22:55:50 37° ENE 22:55:50 37° ENE 22:59:37 10° NE
Meteor 2-6 Rocket 4.3 22:53:26 61° SSW 22:54:34 88° W 23:00:34 10° N
Cosmos 2333 Rocket 2.2 22:55:19 66° E 22:55:19 66° E 23:00:37 10° NNE
Cosmos 1570 Rocket 3.9 22:57:59 84° NNE 22:57:59 84° NNE 23:03:06 10° NNE
Cosmos 2278 Rocket 2.6 22:54:06 10° NNW 22:59:34 49° ENE 22:59:34 49° ENE
Cosmos 1844 Rocket 2.7 22:55:05 10° NNW 23:00:37 68° WSW 23:00:56 66° SW
Cosmos 2208 Rocket 4.0 23:07:21 80° NNW 23:07:21 80° NNW 23:12:27 10° NNE
SeaSat 1 2.8 23:07:43 59° W 23:07:43 59° W 23:12:20 10° NNW
Cosmos 1782 4.4 23:11:51 33° WNW 23:11:51 33° WNW 23:15:08 10° NNW
Cosmos 2219 Rocket 2.6 23:19:11 51° WSW 23:20:09 59° WNW 23:25:44 10° NNE
Cosmos 1745 Rocket 3.9 23:15:38 10° N 23:22:00 83° E 23:22:00 83° E
NOSS 3-1 (C) 4.0 23:29:43 29° WSW 23:32:36 54° NW 23:38:58 10° NNE
Cosmos 1898 Rocket 4.2 23:28:26 10° NNW 23:32:21 50° N 23:32:21 50° N
Meteor 1-27 Rocket 4.1 23:35:39 59° WNW 23:35:39 59° WNW 23:41:04 10° N
ASTEX 1 4.4 23:41:51 42° WNW 23:41:51 42° WNW 23:45:47 10° NNW
NOSS 0 Rocket 4.3 23:45:33 54° W 23:46:12 57° WNW 23:52:17 10° NNE
NOSS 3-1 (A) 3.9 23:47:48 51° W 23:48:45 56° NW 23:55:09 10° NNE
H-2A R/B 4.1 23:51:22 25° NW 23:51:22 25° NW 23:53:38 10° NNW
ATLAS 2AS CENTAUR R/B 3.9 23:52:15 35° ENE 23:52:15 35° ENE 23:57:21 10° NE
Atlas Centaur 2 4.3 23:44:58 10° WSW 23:47:50 22° WSW 23:47:50 22° WSW
